Location: Killam
(52.7910°N, 111.8608°W)
Time: 21:26:18
(UTC+00:00)

Tiros 1 despin weight - Visible Passes

Search period start: 18 February 2026 00:00
Search period end: 28 February 2026 00:00
Orbit: 557 x 594 km, 48.2° (Epoch: 16 February)

Date Brightness Start Highest point End Pass type
(mag) Time Alt. Az. Time Alt. Az. Time Alt. Az.
18 Feb ? 02:48:46 10° W 02:52:33 33° SSW 02:53:44 28° SSE visible
19 Feb ? 02:51:18 10° W 02:54:54 28° SSW 02:56:19 23° S visible
20 Feb ? 02:53:54 10° W 02:57:12 22° SSW 02:58:57 17° S visible
21 Feb ? 01:15:41 10° W 01:19:36 38° SSW 01:23:30 10° SE visible
21 Feb ? 02:56:39 10° WSW 02:59:27 17° SSW 03:01:40 12° S visible
22 Feb ? 02:59:43 10° WSW 03:01:39 13° SW 03:03:34 10° S visible
23 Feb ? 01:20:40 10° W 01:24:14 27° SSW 01:27:48 10° SE visible
26 Feb ? 01:29:05 10° WSW 01:30:53 13° SW 01:32:41 10° SSW visible
